sat.trackr.live / text

‹ back to catalog

KUIPER-00557

NORAD 69622 · 2026-140AG

PAYLOAD ACTIVE UNKNOWN

§ Identity

Operator
Country
US
Launch date
2026-06-17
Launch site
FRGUI
Launch vehicle
Mass (kg)
RCS (m²)

External: N2YO · Heavens-Above · Gunter

§ Orbital elements

Epoch: 2026-09-20T04:00:03.000096Z

Period
93.75 min
Inclination
51.8807°
Eccentricity
0.0008908
Mean motion
15.36008139 rev/d
Perigee alt
451.8 km
Apogee alt
464.0 km
Semi-major
6,836.1 km
B*
-8.1128e-5
RAAN
299.1005°
Arg perigee
166.6735°
Mean anomaly
79.5686°
Rev number
334

§ Raw data

KUIPER-005571 69622U 26140AG  26263.16670139 -.00003281  00000+0 -81128-4 0  99992 69622  51.8807 299.1005 0008908 166.6735  79.5686 15.36008139  3348

JSON: /api/v1/satellites/69622 · /tle

For live sub-satellite position, see the globe view (requires WebGL).

§ Visibility from observer

Set your observer location to see the next 7 days of passes ≥ 10°. The values pass through the URL so the page stays shareable.

No JS? Fill the form by hand. The geolocation button needs JavaScript.